Pardubice, Czech Republic

6:06 PM CEST on July 24, 2017 (GMT +0200)
Pardubice

Weather History for LKPD - August, 2013

Change the Weather History Date:

Sunday, August 18, 2013

  Actual Average Record
Temperature  
Mean Temperature 71 °F -  
Max Temperature 87 °F - - ()
Min Temperature 55 °F - - ()
Cooling Degree Days 6    
Growing Degree Days 21 (Base 50)    
Moisture  
Dew Point 56 °F    
Average Humidity 61    
Maximum Humidity 94    
Minimum Humidity 31    
Precipitation  
Precipitation 0.00 in - - ()
Sea Level Pressure  
Sea Level Pressure 29.99 in    
Wind  
Wind Speed 2 mph ()    
Max Wind Speed 9 mph    
Max Gust Speed -    
Visibility 6.2 miles    
Events      
T = Trace of Precipitation, MM = Missing Value Source: Averaged Metar Reports

Daily Weather History Graph

Daily Weather History Graph

Search for Another Location

Airport or City:

Trip Planner

Search our weather history database for the weather conditions in past years. The results will help you decide how hot, cold, wet, or windy it might be!

Date:

Astronomy

Aug. 18, 2013 Rise Set
Actual Time 5:51 AM CEST 8:09 PM CEST
Civil Twilight 5:15 AM CEST 8:45 PM CEST
Nautical Twilight 4:30 AM CEST 9:29 PM CEST
Astronomical Twilight 3:39 AM CEST 10:20 PM CEST
Moon 6:08 PM CEST (8/18) 2:30 AM CEST (8/18)
Length of Visible Light 15h 29m
Length of Day
14h 18m
Waxing Gibbous, 90% of the Moon is Illuminated
Aug 18
Waxing Gibbous
Aug 21
Full
Aug 28
Last Quarter
Sep 5
New
Sep 12
First Quarter

Hourly Weather History & Observations

Time (CEST) Temp. Heat Index Dew Point Humidity Pressure Visibility Wind Dir Wind Speed Gust Speed Precip Events Conditions
12:00 AM 62.6 °F - 53.6 °F 72% 30.01 in - East 3.5 mph - N/A   Clear
1:00 AM 59.0 °F - 51.8 °F 77% 30.01 in - East 4.6 mph - N/A   Clear
2:00 AM 60.8 °F - 51.8 °F 72% 30.01 in - ENE 3.5 mph - N/A   Clear
3:00 AM 57.2 °F - 51.8 °F 82% 30.01 in - Variable 1.2 mph - N/A   Clear
4:00 AM 59.0 °F - 51.8 °F 77% 30.01 in - ESE 1.2 mph - N/A   Clear
5:00 AM 57.2 °F - 53.6 °F 88% 30.01 in - West 2.3 mph - N/A   Clear
6:00 AM 57.2 °F - 53.6 °F 88% 30.01 in - Variable 1.2 mph - N/A   Clear
7:00 AM 55.4 °F - 53.6 °F 94% 30.01 in - SSW 2.3 mph - N/A   Clear
8:00 AM 62.6 °F - 55.4 °F 77% 30.01 in - Calm Calm - N/A   Clear
9:00 AM 69.8 °F - 55.4 °F 60% 30.04 in - Calm Calm - N/A   Clear
10:00 AM 75.2 °F - 57.2 °F 53% 30.04 in - Variable 1.2 mph - N/A   Clear
11:00 AM 78.8 °F - 55.4 °F 44% 30.01 in - Variable 2.3 mph - N/A   Clear
12:00 PM 80.6 °F 80.3 °F 53.6 °F 39% 30.01 in - Variable 1.2 mph - N/A   Clear
1:00 PM 84.2 °F 83.0 °F 55.4 °F 37% 29.98 in - Variable 2.3 mph - N/A   Clear
2:00 PM 86.0 °F 84.5 °F 55.4 °F 35% 29.98 in - Variable 2.3 mph - N/A   Clear
3:00 PM 87.8 °F 86.1 °F 55.4 °F 33% 29.95 in - South 4.6 mph - N/A   Clear
4:00 PM 87.8 °F 85.7 °F 53.6 °F 31% 29.95 in - SW 5.8 mph - N/A   Clear
5:00 PM 87.8 °F 85.7 °F 53.6 °F 31% 29.95 in - WSW 9.2 mph - N/A   Clear
6:00 PM 87.8 °F 86.1 °F 55.4 °F 33% 29.95 in - West 4.6 mph - N/A   Clear
7:00 PM 86.0 °F 84.5 °F 55.4 °F 35% 29.95 in - Calm Calm - N/A   Clear
8:00 PM 71.6 °F - 66.2 °F 83% 29.95 in 6.2 mi North 4.6 mph - N/A   Mostly Cloudy
9:00 PM 71.6 °F - 66.2 °F 83% 29.95 in - Variable 2.3 mph - N/A   Clear
10:00 PM 71.6 °F - 64.4 °F 78% 29.95 in - Variable 1.2 mph - N/A   Clear
11:00 PM 71.6 °F - 60.8 °F 69% 29.98 in - Calm Calm - N/A   Clear